Overview Statistics Trail Chart Weather Telemetry Raw packets
 

This is the latest recevied weather packets stored in our database for station/object AB4KY. If no packets are shown the sender has not sent any weather packets the latest 10 day(s).

<< 89 90 91 92 93 94 95 >>
Time Temp. Humidity Pressure Rain* Wind** Luminosity Snow
1787958186 26.11° C 61% 1016.9 hPa 0 mm - 21 W/m² -
1787957885 26.11° C 61% 1016.8 hPa 0 mm - 22 W/m² -
1787957579 26.11° C 60% 1017 hPa 0 mm - 28 W/m² -
1787957274 26.11° C 59% 1016.8 hPa 0 mm - 23 W/m² -
1787956967 26.67° C 59% 1016.8 hPa 0 mm - 26 W/m² -
1787956662 26.67° C 57% 1016.6 hPa 0 mm - 26 W/m² -
1787956357 26.67° C 56% 1016.7 hPa 0 mm - 26 W/m² -
1787956052 26.67° C 58% 1016.6 hPa 0 mm - 27 W/m² -
1787955748 26.67° C 56% 1016.7 hPa 0 mm - 28 W/m² -
1787955444 26.67° C 55% 1016.7 hPa 0 mm - 29 W/m² -
1787955142 27.22° C 55% 1016.8 hPa 0 mm - 29 W/m² -
1787954839 27.22° C 54% 1016.8 hPa 0 mm - 31 W/m² -
1787954534 27.22° C 60% 1016.7 hPa 0 mm - 32 W/m² -
1787954233 27.22° C 55% 1016.8 hPa 0 mm - 33 W/m² -
1787953928 27.22° C 57% 1016.9 hPa 0 mm - 34 W/m² -
1787953627 27.22° C 60% 1016.7 hPa 0 mm - 35 W/m² -
1787953327 27.22° C 61% 1016.6 hPa 0 mm - 40 W/m² -
1787953025 27.22° C 59% 1016.8 hPa 0 mm - 44 W/m² -
1787952724 27.78° C 57% 1016.8 hPa 0 mm - 95 W/m² -
1787952419 27.78° C 57% 1016.9 hPa 0 mm - 48 W/m² -
1787952116 27.78° C 57% 1016.9 hPa 0 mm - 48 W/m² -
1787951814 27.78° C 58% 1017.1 hPa 0 mm - 49 W/m² -
1787951510 27.78° C 58% 1017.2 hPa 0 mm - 49 W/m² -
1787951207 27.78° C 60% 1017.1 hPa 0 mm - 61 W/m² -
1787950901 27.78° C 58% 1016.9 hPa 0 mm - 48 W/m² -

* Rain latest hour (hover to see other rain measurements)
** Current wind speed in m/s (hover to see current wind gust speed)